Flag Weather past 2 weeks in Santiago, Chile

Now
61 °F

Sunny.


Feels Like: 61 °F
Forecast: 51 / 78 °F
Wind: 2 mph from North

Location: Pudahuel

Current Time: Nov 23, 2014 at 10:57:29 AM

Latest Report: Nov 23, 2014 at 10:00 AM


Visibility: 10 mi

Pressure: 29.98 "Hg

Humidity: 52%

Dew point: 43 °F

Location of SantiagoLocation

Historic Weather in Santiago — Graph

°F

Santiago temperature yesterday

Maximum temperature yesterday: 84 °F (at 3:00 PM)
Minimum temperature yesterday: 48 °F (at 7:00 AM)
Average temperature yesterday: 66 °F

Past Weeks' High & Low Weather Summary

 TemperatureHumidityPressure
High88 °F (Nov 13, 4:00 PM)88% (Nov 18, 5:00 AM)30.09 "Hg (Nov 18, 5:00 AM)
Low46 °F (Nov 21, 7:00 AM)10% (Nov 13, 2:00 PM)29.89 "Hg (Nov 8, 5:00 PM)
Average67 °F47%29.99 "Hg
* Reported Nov 8 9:00 AM — Nov 23 9:00 AM, Santiago, Weather by CustomWeather, © 2014

Note: Actual official high and low records may vary slightly from our data, if they occured in-between our weather recording intervals... More about our weather records

Advertising

Santiago weather history for previous 24 hours

 ConditionsComfort  
Time TempWeatherWind HumidityBarometerVisibility
9:00 AM
Nov 23
55 °FBroken clouds.3 mph63%30.01 "HgN/A
8:00 AM50 °FScattered clouds.7 mph82%30.01 "HgN/A
7:00 AM50 °FScattered clouds.7 mph76%30.01 "HgN/A
6:00 AM50 °FPassing clouds.7 mph76%29.98 "HgN/A
5:00 AM54 °FPassing clouds.8 mph67%29.98 "HgN/A
4:00 AM54 °FPassing clouds.8 mph67%29.98 "HgN/A
3:00 AM54 °FPassing clouds.10 mph67%29.98 "HgN/A
2:00 AM55 °FPassing clouds.9 mph63%30.01 "HgN/A
1:00 AM59 °FPassing clouds.7 mph51%30.01 "HgN/A
12:00 AM61 °FPassing clouds.10 mph48%30.01 "HgN/A
11:00 PM
Nov 22
63 °FPassing clouds.9 mph45%30.01 "HgN/A
10:00 PM66 °FPassing clouds.9 mph40%29.98 "HgN/A
9:00 PM68 °FPassing clouds.12 mph38%29.98 "HgN/A
8:00 PM72 °FPartly sunny.16 mph36%29.95 "HgN/A
7:00 PM73 °FPartly sunny.16 mph33%29.95 "HgN/A
6:00 PM77 °FPartly sunny.20 mph30%29.92 "HgN/A
4:00 PM82 °FSunny.17 mph25%29.92 "Hg10 mi
3:00 PM84 °FPassing clouds.12 mph16%29.92 "HgN/A
2:00 PM82 °FPassing clouds.9 mph19%29.95 "HgN/A
1:00 PM79 °FPassing clouds.7 mph24%29.98 "HgN/A
12:00 PM75 °FPassing clouds.6 mph31%30.01 "HgN/A
11:00 AM70 °FPassing clouds.3 mph35%30.01 "HgN/A
10:00 AM66 °FPartly sunny.No wind40%30.01 "HgN/A
Weather by CustomWeather, © 2014

See weather overviewHow to use our weather pages